Szolnok, Hungary

8:13 AM CET on March 24, 2017 (GMT +0100)
Szolnok

Weather History for LHSN - January, 2013

Change the Weather History Date:

Sunday, January 27, 2013

  Actual Average (LHBP) Record (LHBP)
Temperature  
Mean Temperature 25 °F -  
Max Temperature 33 °F 36 °F 51 °F (2001)
Min Temperature 17 °F 22 °F 1 °F (2006)
Degree Days  
Heating Degree Days 40    
Moisture  
Dew Point 22 °F    
Average Humidity 83    
Maximum Humidity 100    
Minimum Humidity 60    
Precipitation  
Precipitation 0.00 in - - ()
Sea Level Pressure  
Sea Level Pressure 30.00 in    
Wind  
Wind Speed 4 mph ()    
Max Wind Speed 9 mph    
Max Gust Speed -    
Visibility 3.3 miles    
Events Snow    
Averages and records for this station are not official NWS values.
T = Trace of Precipitation, MM = Missing Value Source: Averaged Metar Reports

Daily Weather History Graph

Daily Weather History Graph

Search for Another Location

Airport or City:

Trip Planner

Search our weather history database for the weather conditions in past years. The results will help you decide how hot, cold, wet, or windy it might be!

Date:

Astronomy

Jan. 27, 2013 Rise Set
Actual Time 7:10 AM CET 4:33 PM CET
Civil Twilight 6:37 AM CET 5:07 PM CET
Nautical Twilight 6:00 AM CET 5:44 PM CET
Astronomical Twilight 5:24 AM CET 6:20 PM CET
Moon 5:15 PM CET (1/27) 6:48 AM CET (1/27)
Length of Visible Light 10h 29m
Length of Day
9h 23m
Full, 100% of the Moon is Illuminated
Jan 27
Full
Feb 3
Last Quarter
Feb 10
New
Feb 17
First Quarter
Feb 25
Full

Hourly Weather History & Observations

Time (CET) Temp. Windchill Dew Point Humidity Pressure Visibility Wind Dir Wind Speed Gust Speed Precip Events Conditions
12:15 AM 24.8 °F - 21.2 °F 86% 30.01 in - NNW 2.2 mph - N/A   Clear
12:45 AM 23.0 °F - 19.4 °F 86% 30.01 in - NNW 2.2 mph - N/A   Clear
1:15 AM 21.2 °F - 19.4 °F 93% 30.04 in - Variable 2.2 mph - N/A   Clear
1:45 AM 21.2 °F - 19.4 °F 93% 30.01 in - North 2.2 mph - N/A   Clear
2:15 AM 19.4 °F - 15.8 °F 86% 30.01 in - North 2.2 mph - N/A   Clear
2:45 AM 21.2 °F - 19.4 °F 93% 30.01 in - North 2.2 mph - N/A   Clear
3:15 AM 21.2 °F - 17.6 °F 86% 30.01 in - Calm Calm - N/A   Clear
3:45 AM 21.2 °F - 19.4 °F 93% 30.04 in 5.0 mi Calm Calm - N/A   Unknown
4:15 AM 19.4 °F 12.9 °F 17.6 °F 93% 30.04 in 5.0 mi SW 4.5 mph - N/A   Unknown
4:45 AM 19.4 °F - 17.6 °F 93% 30.04 in 5.0 mi SW 2.2 mph - N/A   Unknown
5:15 AM 19.4 °F - 17.6 °F 93% 30.04 in 5.0 mi South 2.2 mph - N/A   Unknown
5:45 AM 19.4 °F - 17.6 °F 93% 30.04 in 5.0 mi South 2.2 mph - N/A   Unknown
6:15 AM 19.4 °F - 15.8 °F 86% 30.04 in 3.7 mi SSW 2.2 mph - N/A   Unknown
6:38 AM 19.4 °F - 17.6 °F 93% 30.04 in 3.1 mi SW 2.2 mph - N/A   Partly Cloudy
6:45 AM 19.4 °F - 15.8 °F 86% 30.04 in 3.1 mi SSW 2.2 mph - N/A   Partly Cloudy
7:15 AM 17.6 °F - 15.8 °F 93% 30.04 in 2.5 mi WNW 2.2 mph - N/A   Partly Cloudy
7:45 AM 19.4 °F - 15.8 °F 86% 30.04 in 2.5 mi West 2.2 mph - N/A   Partly Cloudy
8:15 AM 23.0 °F - 19.4 °F 86% 30.04 in 2.5 mi South 2.2 mph - N/A   Partly Cloudy
8:45 AM - - - N/A% - 5.0 mi SW 6.7 mph - N/A   Mostly Cloudy
9:15 AM 24.8 °F 17.1 °F 21.2 °F 86% 30.04 in 2.5 mi West 6.7 mph - N/A   Mostly Cloudy
9:25 AM - - - N/A% - 5.0 mi West 6.7 mph - N/A   Mostly Cloudy
9:45 AM 26.6 °F 21.3 °F 23.0 °F 86% 30.04 in 2.5 mi WSW 4.5 mph - N/A   Partly Cloudy
10:15 AM 30.2 °F 25.5 °F 23.0 °F 75% 30.04 in 3.1 mi SW 4.5 mph - N/A   Scattered Clouds
10:45 AM 30.2 °F 23.5 °F 21.2 °F 69% 30.01 in 3.7 mi WSW 6.7 mph - N/A   Unknown
11:15 AM 32.0 °F 25.7 °F 21.2 °F 64% 30.01 in 3.7 mi SW 6.7 mph - N/A   Unknown
11:45 AM - - - N/A% - 6.2 mi SW 6.7 mph - N/A   Overcast
12:15 PM 33.8 °F 27.9 °F 21.2 °F 60% 30.01 in - WSW 6.7 mph - N/A   Clear
12:45 PM 33.8 °F 27.9 °F 21.2 °F 60% 30.01 in - WSW 6.7 mph - N/A   Clear
1:15 PM 33.8 °F 26.5 °F 21.2 °F 60% 30.01 in - West 8.9 mph - N/A   Clear
1:45 PM 32.0 °F 24.3 °F 21.2 °F 64% 30.01 in - WSW 8.9 mph - N/A   Clear
2:15 PM 32.0 °F 24.3 °F 21.2 °F 64% 29.98 in - WSW 8.9 mph - N/A   Clear
2:45 PM - - - N/A% - 6.2 mi SW 6.7 mph - N/A   Overcast
3:15 PM 32.0 °F 24.3 °F 21.2 °F 64% 29.98 in - SW 8.9 mph - N/A   Clear
3:45 PM 32.0 °F 24.3 °F 23.0 °F 69% 29.98 in - WSW 8.9 mph - N/A   Clear
4:15 PM 32.0 °F 27.6 °F 23.0 °F 69% 29.98 in - WSW 4.5 mph - N/A   Clear
4:45 PM 32.0 °F 27.6 °F 23.0 °F 69% 29.98 in - SW 4.5 mph - N/A   Clear
5:15 PM 32.0 °F 27.6 °F 23.0 °F 69% 29.98 in - SSW 4.5 mph - N/A   Clear
5:45 PM - - - N/A% - 5.0 mi South 8.9 mph - N/A   Overcast
6:15 PM 30.2 °F - 24.8 °F 80% 29.98 in - SW 2.2 mph - N/A   Clear
6:36 PM 30.2 °F - 24.8 °F 80% 29.98 in 6.2 mi SSW 2.2 mph - N/A Snow Light Snow
6:45 PM 30.2 °F - 24.8 °F 80% 29.98 in 6.2 mi SSW 2.2 mph - N/A Snow Light Snow
7:06 PM 30.2 °F - 24.8 °F 80% 29.95 in 3.1 mi SW 2.2 mph - N/A Snow Snow
7:15 PM 30.2 °F - 26.6 °F 86% 29.95 in 1.9 mi SW 2.2 mph - N/A Snow Snow
7:31 PM 30.2 °F - 26.6 °F 86% 29.95 in 0.9 mi SSW 2.2 mph - N/A Snow Snow
7:37 PM - - - N/A% - 5.0 mi South 8.9 mph - N/A   Overcast
7:45 PM 28.4 °F - 26.6 °F 93% 29.95 in 0.9 mi SSW 2.2 mph - N/A Snow Snow
8:15 PM 28.4 °F 23.4 °F 26.6 °F 93% 29.95 in 0.9 mi SSE 4.5 mph - N/A Snow Light Snow
8:45 PM - - - N/A% - 1.9 mi South 8.9 mph - N/A   Unknown
9:15 PM 30.2 °F 23.5 °F 28.4 °F 93% 29.92 in 0.9 mi South 6.7 mph - N/A Snow Light Snow
9:45 PM 28.4 °F 21.4 °F 28.4 °F 100% 29.92 in 0.9 mi South 6.7 mph - N/A Snow Light Snow
10:15 PM 28.4 °F 21.4 °F 28.4 °F 100% 29.92 in 0.9 mi South 6.7 mph - N/A Snow Light Snow
10:45 PM 28.4 °F 21.4 °F 28.4 °F 100% 29.92 in 0.9 mi South 6.7 mph - N/A Snow Light Snow
11:15 PM 28.4 °F 21.4 °F 28.4 °F 100% 29.92 in 0.9 mi South 6.7 mph - N/A Snow Light Snow
11:45 PM - - - N/A% - 1.9 mi North - - N/A   Overcast